User: anonymous   Login
Location: Caltech
(34.1382°N, 118.1253°W)
Time: 17:27:27
(UTC-07:00)
Language:

SO-50 - Orbit

View from above orbital plane
View from above orbital plane
View from above satellite
View from above satellite

Ground track
Ground track

The orbit data is extracted from the following two-line orbital elements,

1 27607U 02058C   17085.91473321 +.00000066 +00000-0 +30047-4 0  9998
2 27607 064.5571 016.9660 0034387 136.2276 224.1561 14.75298205766847
Epoch (UTC): 26 March 2017 21:57:12
Eccentricity: 0.0034387
inclination: 64.5571°
perigee height: 620 km
apogee height: 668 km
right ascension of ascending node: 16.9660°
argument of perigee: 136.2276°
revolutions per day: 14.75298205
mean anomaly at epoch: 224.1561°
orbit number at epoch: 76684

The dashed part of the orbit path shows where the satellite is in the earth's shadow,  

DLR